map of SDJ home
SDJ - Airport
Location
City:  Sendai, Miyagi, Japan
Near (Alt.):Natori
Name:Sendai Airport
ICAO:RJSS
IATA:SDJ

Details
Type:Airport (Aerodrome, Airfield)
Use:Public/Civil
Latitude:3808'23"N (38.139722)
Longitude:14055'01"E (140.916944)
Datum:WGS 1984
Elevation:15 ft (5 m)
Variation:8.14W (WMM2015 magnetic declination)
-0.05 annual change
Runways:2
Longest:9842 × 150 ft (3000 × 45.5 m), paved

Time
Time Zone:UTC+9
Local Time:

Weather
METAR:RJSS 220435Z 31015G25KT 9999 FEW030 SCT040 06/M06 Q1010 RMK 1CU030 3CU040 A2983
TAF:RJSS 212306Z 2200/2306 30012KT 9999 FEW020 BKN040
TEMPO 2203/2207 30015G25KT
BECMG 2212/2215 24004KT

Related Locations
Nearby:
Farthest:SSMT: 11610 mi / 18684 km
Mostardas, RS, BR

Find:

   beyond  
but within

Other Information
Maps:
NOTAMs:
Links:
Sources:

  
  • flag of Japan
  • flag of Miyagi
  • flag of Sendai
  

Sectional Chart

Flight Planning
at skyvector.com

Satellite Image

Google Maps Satellite view

 

Copyright © 2004-2019 Karl L. Swartz. All rights reserved.
The Great Circle Mapper name and logo are trademarks of the Great Circle Mapper.
All other trademarks mentioned herein belong to their respective owners.
Please see credits for attibutions and further copyright information.

  Follow gcmap on Facebook Follow gcmap on Twitter Follow gcmap on Google+ GCmap on LinkedIn

hCard Microformat

Geo Microformat